Regional Weather Roundup
Issued by NWS Kansas City/Pleasant Hill, MO

Home | Current Version | Previous Version | Graphics & Text | Print | Product List | Glossary Off
Versions: 1 2 3 4 5 6 7 8 9 10 11 12 13 14 15 16 17 18 19 20 21 22 23 24 25 26 27 28 29 30 31 32 33 34 35 36 37 38 39 40 41 42 43 44 45 46 47 48 49 50

000
ASUS43 KEAX 061804
RWREAX

WEATHER ROUNDUP FOR EASTERN KANSAS AND NORTHWEST MISSOURI
NATIONAL WEATHER SERVICE KANSAS CITY/PLEASANT HILL MO
100 PM CDT WED MAY 06 2015

KSZ040-057-103>105-MOZ028-029-037-043-061900-
...KANSAS CITY METROPOLITAN AREA...

CITY           SKY/WX    TMP DP  RH WIND       PRES   REMARKS
K.C. INTL      CLOUDY    67  60  78 S9        29.97F
6HR MIN TEMP:  65; 6HR MAX TEMP:  70; 6HR PCP: TRACE;

K.C. DOWNTOWN  CLOUDY    69  58  67 S12       29.97F
6HR MIN TEMP:  68; 6HR MAX TEMP:  70; 6HR PCP: TRACE;

LEES SUMMIT    LGT RAIN  68  59  73 S15G24    29.98F
6HR MIN TEMP:  64; 6HR MAX TEMP:  69; 6HR PCP:  0.01;

OLATHE - IXD   PTSUNNY   71  60  68 S20       29.97F
6HR MIN TEMP:  64; 6HR MAX TEMP:  71; 6HR PCP: TRACE;

OLATHE - OJC   PTSUNNY   70  60  70 S15       29.96F
6HR MIN TEMP:  65; 6HR MAX TEMP:  70; 6HR PCP: TRACE;

LAWRENCE       CLOUDY    69  60  73 SE14G22   29.94F

$$

MOZ001>008-011>017-020>025-030>033-038>040-044>046-053-054-061900-
...NORTHERN AND CENTRAL MISSOURI...

CITY           SKY/WX    TMP DP  RH WIND       PRES   REMARKS
ST. JOSEPH     LGT RAIN  69  60  73 S21G31    29.95S
6HR MIN TEMP:  66; 6HR MAX TEMP:  71; 6HR PCP: TRACE;

MOSBY          MOCLDY    68  59  73 SE6       29.99F
WHITEMAN AFB   DRIZZLE   66  61  84 S12G21    30.02S
6HR MIN TEMP:  37; 6HR MAX TEMP:  70; 6HR PCP:  0.02;

CLINTON        FAIR      68  63  83 SE12      30.03F
SEDALIA        CLOUDY    69  59  70 S16       30.04F
6HR MIN TEMP:  63; 6HR MAX TEMP:  71; 6HR PCP: TRACE;

WARSAW         NOT AVBL
MARSHALL       PTSUNNY   72  61  68 S13G22    30.04S
CHILLICOTHE      N/A     71  61  70 S10G17    30.01S
6HR MIN TEMP:  65; 6HR MAX TEMP:  72;

KIRKSVILLE     CLOUDY    75  61  61 S12       30.02S
6HR MIN TEMP:  64; 6HR MAX TEMP:  79;


$$

MOZ041-047>049-056>058-063>065-088>090-097-061900-
...EASTERN AND SOUTHERN MISSOURI...

CITY           SKY/WX    TMP DP  RH WIND       PRES   REMARKS
ST. LOUIS INTL PTSUNNY   85  53  33 S14G24    30.10F
6HR MIN TEMP:  68; 6HR MAX TEMP:  85;

SPIRIT OF STL  PTSUNNY   82  55  39 S12G18    30.07F
COLUMBIA       FAIR      79  59  50 S17G29    30.05S
JEFFERSON CITY PTSUNNY   80  54  40 SW12G22   30.04F
MEXICO         FAIR      82  63  51 S17G29    30.05F
HANNIBAL       FAIR      82  52  34 S16G30    30.05F
ROLLA          PTSUNNY   74  59  59 S10       30.07F
LEBANON        FAIR      79  57  47 S14G20    30.08F
OSAGE BEACH    PTSUNNY   79  55  44 S10G18    30.06F
SPRINGFIELD    LGT RAIN  67  63  87 SE9       30.05F
BRANSON        CLOUDY    72  59  64 S10       30.08F
NEVADA         FAIR      72  63  73 S20G25    30.02F
JOPLIN         FAIR      74  61  63 SE7G31    29.98F
WEST PLAINS    PTSUNNY   75  55  49 S12       30.11F

$$

IAZ060-094-KSZ022-034>040-054-083-096-NEZ052-066-093-061900-
...KANSAS...SOUTHEAST NEBRASKA AND IOWA...

CITY           SKY/WX    TMP DP  RH WIND       PRES   REMARKS
TOPEKA         FAIR      70  62  76 SE22G29   29.91F
6HR MIN TEMP:  63; 6HR MAX TEMP:  70; 6HR PCP:  0.13;

MANHATTAN      CLOUDY    71  62  73 S23G39    29.85S
EMPORIA        CLOUDY    67  61  81 S25G32    29.90F
CHANUTE        CLOUDY    67  59  75 SE22G29   29.95F
WICHITA        CLOUDY    66  62  87 SE20      29.83F
OMAHA          PTSUNNY   71  60  68 S25G33    29.84F
LINCOLN        CLOUDY    64  61  90 S14       29.83S
FALLS CITY     LGT RAIN  67  58  72 S18G31    29.90S
LAMONI         CLOUDY    72  59  63 S22G29    29.96F
DES MOINES     CLOUDY    76  59  55 S22G29    29.94F

$$




USA.gov is the U.S. government's official web portal to all federal, state and local government web resources and services.